Regional Weather Roundup
Issued by NWS New Orleans/Baton Rouge, LA

Home | Current Version | Previous Version | Text Only | Print | Product List | Glossary Off
Versions: 1 2 3 4 5 6 7 8 9 10 11 12 13 14 15 16 17 18 19 20 21 22 23 24 25 26 27 28 29 30 31 32 33 34 35 36 37 38 39 40 41 42 43 44 45 46 47 48 49 50

747
ASUS44 KLIX 270801
RWRLIX
NEW ORLEANS REGIONAL WEATHER ROUNDUP
NATIONAL WEATHER SERVICE NEW ORLEANS LA
200 AM CST TUE JAN 27 2015

NOTE: "FAIR" INDICATES FEW OR NO CLOUDS BELOW 12,000 FEET WITH NO
      SIGNIFICANT WEATHER AND/OR OBSTRUCTIONS TO VISIBILITY.
      SKY/WX - SKY CONDITION AND SIGNIFICANT WEATHER.
      TMP - AIR TEMPERATURE.     DP    - DEWPOINT TEMPERATURE.
      RH  - RELATIVE HUMIDITY.   PRES  - PRESSURE.
      HI  - HEAT INDEX.          WCI   - WIND CHILL INDEX.

*  THESE STATIONS ARE NOT NWS OR FAA STATIONS AND ARE NOT UNDER
   NWS QUALITY CONTROL.

LAZ038-040-048-061>063-065>067-069-270900-
SOUTHEAST LOUISIANA

CITY           SKY/WX    TMP DP  RH WIND       PRES   REMARKS
N.O. AUDUBON   NOT AVBL
N.O. INTL ARPT CLEAR     49  39  68 SW8       30.10F
N.O. LAKEFRONT CLEAR     51  41  68 SW8       30.10F
N.O. DOWNTOWN*   N/A     52  36  54 S6        30.10F
SLIDELL        CLEAR     47  38  71 CALM      30.07F
BATON ROUGE    CLEAR     44  38  79 SW5       30.08F
BOOTHVILLE     CLEAR     48  45  89 W7        30.12R
BELLE CHASSE   CLEAR     47  38  71 SW7       30.10F
BOGALUSA*        N/A     38  34  85 CALM      30.08F
GALLIANO*      NOT AVBL
NEW ROADS*     NOT AVBL
GONZALES*      NOT AVBL
HAMMOND*       NOT AVBL
HOUMA*         CLEAR     46  45  97 SW3       30.11F
PORT FOURCHON* MOSUNNY   54  50  87 W9        30.15S

$$

MSZ070-080>082-270900-
SOUTHERN MISSISSIPPI

CITY           SKY/WX    TMP DP  RH WIND       PRES   REMARKS
MCCOMB         CLEAR     44  34  67 W5        30.05F
GULFPORT       CLEAR     43  34  70 CALM      30.06F
BILOXI         CLEAR     47  36  66 W6        30.06F
PASCAGOULA     CLEAR     40  35  83 W3        30.07F

$$

COASTAL OBSERVATIONS
LAKE AND NEARSHORE STATIONS

STATION/POSITION TIME  TEMP    WIND        PRES    WAVE
                       AIR SEA DIR/SP/G            HT/PER
                 (UTC) (F)     (DEG/KT/KT) (MB)    (FT/S)
PASCAGOULA       0718   49     300/  9/ 13 1017.9
WAVELAND YACHT   0718   46     300/  5/  6 1017.8
GRAND ISLE       0718   54 57  280/ 15/ 17 1020.0
SOUTHWEST PASS   0718   57 45  300/ 12/ 18 1019.4
NEW CANAL        0718   52 52  240/  5/  8 1019.7
SHELL BEACH      0718   48 53  250/  8/ 10 1019.3

OFFSHORE STATIONS

STATION/POSITION TIME  TEMP    WIND        PRES    WAVE
                       AIR SEA DIR/SP/G            HT/PER
                 (UTC) (F)     (DEG/KT/KT) (MB)    (FT/S)
64 S DAUPHIN ISL 0745   60 70  290/ 23/ 27 1018.5    5/ 8

$$




USA.gov is the U.S. government's official web portal to all federal, state and local government web resources and services.